Flag for U.S.A. Weather past 2 weeks in Orange, California, U.S.A.

Now
62 °F

Broken clouds.


Feels Like: 62 °F
Forecast: 53 / 74 °F
Wind: No wind

Location: John Wayne Airport-Orange County Airport

Current Time: Apr 26, 2015 at 9:44:21 AM

Latest Report: Apr 26, 2015 at 8:53 AM


Visibility: 10 mi

Pressure: 29.99 "Hg

Humidity: 65%

Dew point: 50 °F

Location of OrangeLocation

Historic Weather in Orange — Graph

°F

Orange temperature yesterday

Maximum temperature yesterday: 64 °F (at 1:53 PM)
Minimum temperature yesterday: 57 °F (at 11:53 PM)
Average temperature yesterday: 61 °F

Past Weeks' High & Low Weather Summary

 TemperatureHumidityPressure
High79 °F (Apr 17, 12:53 PM)94% (Apr 24, 9:58 AM)30.11 "Hg (Apr 24, 9:58 AM)
Low54 °F (Apr 26, 2:53 AM)6% (Apr 16, 10:53 AM)29.85 "Hg (Apr 20, 5:53 PM)
Average63 °F61%29.95 "Hg
* Reported Apr 11 7:53 AM — Apr 26 7:53 AM, Orange, Weather by CustomWeather, © 2015

Note: Actual official high and low records may vary slightly from our data, if they occured in-between our weather recording intervals... More about our weather records

Advertising

Orange weather history for previous 24 hours

 ConditionsComfort  
Time TempWeatherWind HumidityBarometerVisibility
7:53 AM
Sun, Apr 26
58 °FScattered clouds.5 mph72%29.99 "Hg10 mi
6:53 AM55 °FPassing clouds.No wind80%29.97 "Hg10 mi
5:53 AM54 °FClear.5 mph83%29.95 "Hg10 mi
4:53 AM54 °FClear.6 mph83%29.94 "Hg10 mi
3:53 AM54 °FClear.6 mph83%29.93 "Hg10 mi
2:53 AM54 °FClear.No wind83%29.91 "Hg10 mi
1:53 AM55 °FClear.No wind80%29.92 "Hg10 mi
12:53 AM56 °FClear.3 mph77%29.92 "Hg10 mi
11:53 PM
Sat, Apr 25
57 °FClear.No wind74%29.92 "Hg10 mi
10:53 PM59 °FPassing clouds.No wind67%29.91 "Hg10 mi
9:53 PM59 °FPassing clouds.5 mph69%29.92 "Hg10 mi
8:53 PM60 °FPassing clouds.6 mph72%29.90 "Hg10 mi
7:53 PM60 °FBroken clouds.5 mph75%29.90 "Hg10 mi
6:53 PM62 °FBroken clouds.13 mph70%29.88 "Hg10 mi
5:53 PM63 °FPartly sunny.10 mph73%29.88 "Hg10 mi
4:53 PM63 °FMostly cloudy.18 mph73%29.89 "Hg10 mi
3:53 PM62 °FCloudy.10 mph78%29.91 "Hg7 mi
2:53 PM62 °FMostly cloudy.13 mph70%29.94 "Hg10 mi
1:53 PM64 °FMostly cloudy.15 mph61%29.97 "Hg10 mi
12:53 PM63 °FBroken clouds.9 mph60%29.98 "Hg10 mi
11:53 AM63 °FBroken clouds.7 mph60%30.00 "Hg10 mi
10:53 AM63 °FBroken clouds.8 mph65%30.00 "Hg10 mi
9:53 AM62 °FMostly cloudy.3 mph65%29.99 "Hg10 mi
Weather by CustomWeather, © 2015

See weather overviewHow to use our weather pages